ARIRANG-2 (KOMPSAT-2)

Last updated on Mon Sep 21 2026 00:02:45 GMT+0000 (Coordinated Universal Time)

1 29268U 06031A 26263.59821539 .00000148 00000+0 36282-4 0 9995 2 29268 97.8342 83.4586 0015409 127.0030 324.1544 14.64706788 75442
UTC large
Height (km)
Speed (km/s)
/
Latitude / Longitude
Inclination (degrees)
Orbital Period (minutes)
Azimuth
Elevation
Range (km)
Doppler Factor

Next 0 passes for location: London (51.5072 / 0.1276)

No passes found over London.
ARIRANG-2 (KOMPSAT-2)